Simultaneous Nadir Overpasses (SNOs) Predictions

Prediction of SNOs between NOAA-20 and PACE Satellite Orbit:

Table of predicted SNOs for the next 14.0 days since TLE Epoch: 9/21/2024
Index Date (NOAA-20) Time (NOAA-20) Lat,Lon (NOAA-20) SZA (NOAA-20 ) Date (PACE) Time (PACE) Lat,Lon (PACE) SZA (PACE ) Distance(km) Time Diff (sec)
1 09/22/2024 18:24:52 79.89,-134.00 81.87 09/22/2024 18:24:57 79.89,-133.92 81.86 1.63 5
2 09/24/2024 22:00:29 -79.94, -8.42 97.22 09/24/2024 22:01:11 -79.94, -8.39 97.24 0.63 42
3 09/24/2024 22:51:08 79.77, 160.59 82.48 09/24/2024 22:50:15 79.76, 160.68 82.49 1.77 53
4 09/27/2024 02:26:46 -79.86, -74.16 96.55 09/27/2024 02:26:29 -79.85, -74.04 96.56 2.38 17
5 09/29/2024 06:02:21 79.86, 51.90 84.28 09/29/2024 06:02:40 79.87, 51.81 84.28 1.88 19
6 09/29/2024 06:51:28 -76.01,-119.64 101.00 09/29/2024 06:50:15 -75.71,-121.48 101.15 60.39 73
7 10/01/2024 09:38:00 -79.99, 176.73 94.68 10/01/2024 09:38:53 -79.99, 176.84 94.72 2.19 53
8 10/01/2024 10:28:38 79.78, -13.96 84.96 10/01/2024 10:27:56 79.78, -13.87 84.97 1.83 42



Historial Predications of SNOs between NOAA-20 and PACE
